Regional Weather Roundup
Issued by NWS

Home | Current Version | Previous Version | Text Only | Print | Product List | Glossary Off
Versions: 1 2 3 4 5 6 7 8 9 10 11 12 13 14 15 16 17 18 19 20 21 22 23 24 25 26 27 28 29 30 31 32 33 34 35 36 37 38 39 40 41 42 43 44 45 46 47 48 49 50

000
ASUS43 KLOT 052000
RWRIL

ILLINOIS REGIONAL WEATHER ROUNDUP
NATIONAL WEATHER SERVICE CHICAGO/ROMEOVILLE IL
200 PM CST THU MAR 05 2015

NOTE: "FAIR" INDICATES FEW OR NO CLOUDS BELOW 12,000 FEET WITH NO
SIGNIFICANT WEATHER AND/OR OBSTRUCTIONS TO VISIBILITY.

* THESE STATIONS ARE NOT UNDER NWS QUALITY CONTROL. THEY ALSO MAY NOT
  REPORT WEATHER SUCH AS PRECIPITATION OR FOG.

ILZ001-002-007-009-015-016-024-052100-
NORTHWEST ILLINOIS

CITY           SKY/WX    TMP DP  RH WIND       PRES   REMARKS
MOLINE         SUNNY     12   0  58 W9        30.55F WCI   0
STERLING*      SUNNY     16   1  53 W12       30.53S WCI   3
$$

ILZ003-004-008-010-011-017-018-052100-
NORTH CENTRAL ILLINOIS

CITY           SKY/WX    TMP DP  RH WIND       PRES   REMARKS
ROCKFORD       SUNNY     12  -3  51 NW13      30.51  WCI  -3
FREEPORT*      SUNNY     10  -4  53 W7        30.51F WCI  -1
DE KALB*       SUNNY     10  -2  57 W14G20    30.48F WCI  -5
$$

ILZ005-006-012>014-019>023-052100-
NORTHEAST ILLINOIS

CITY           SKY/WX    TMP DP  RH WIND       PRES   REMARKS
CHICAGO-OHARE  SUNNY     15  -3  44 W12       30.47S WCI   2
CHICAGO-MIDWAY SUNNY     19  -2  39 NW9       30.48  WCI   8
AURORA         SUNNY     14   0  53 W15       30.50F WCI  -1
LANSING*       SUNNY     19  -3  38 NW7       30.47S WCI  10
WAUKEGAN       SUNNY     14  -6  40 W10       30.46  WCI   1
DUPAGE AIRPORT SUNNY     14  -2  49 W9        30.47F WCI   2
WHEELING       SUNNY     16  -4  41 NW10      30.49S WCI   4
NORTHERLY ISL    N/A     18  -4  37 W7          N/A  WCI   9
$$

LMZ740>746-052100-
SOUTHERN LAKE MICHIGAN

STATION/POSITION SKY/WX   TEMP    WIND        PRES    VSBY  WAVE
                          AIR SEA DIR/SP/G                  HT/PER
                          (F)     (DEG/KT/KT) (MB)    (MI)  (FT/S)
WAUKEGAN HARBOR            14                   N/A
HARRISON CRIB              15     310/ 12/ 18   N/A
BURNHAM HARBOR             19     240/ 10/ 13   N/A
CALUMET HARBOR             18     250/  6/ 11 1030.4F
MICHIGAN CITY              18     280/ 14/ 16   N/A
$$

ILZ025>027-034>036-040-047-049-050-058-095>099-052100-
WEST-CENTRAL ILLINOIS

CITY           SKY/WX    TMP DP  RH WIND       PRES   REMARKS
QUINCY         SUNNY     16   1  51 NW9       30.54  WCI   4
MACOMB*        SUNNY     13   2  62 NW9       30.57F WCI   1
$$

ILZ028>032-037-038-041>044-048-051>054-059>061-052100-
CENTRAL ILLINOIS

CITY           SKY/WX    TMP DP  RH WIND       PRES   REMARKS
DECATUR        SUNNY     16   3  56 NW14      30.52  WCI   2
PEORIA         SUNNY     15  -1  49 NW9       30.54  WCI   3
SPRINGFIELD    SUNNY     18   2  49 NW13      30.54F WCI   5
TAYLORVILLE    NOT AVBL
$$

ILZ033-039-045-046-055>057-062-063-052100-
EAST-CENTRAL ILLINOIS

CITY           SKY/WX    TMP DP  RH WIND       PRES   REMARKS
CHAMPAIGN      MOSUNNY   14   4  64 NW13      30.50S WCI   0
MATTOON        SUNNY     16   4  59 NW17      30.50  WCI   0
$$

ILZ079-100>102-052100-
SOUTHWEST ILLINOIS

CITY           SKY/WX    TMP DP  RH WIND       PRES   REMARKS
ALTON          MOSUNNY   21   0  39 MISG      30.55
BELLEVILLE     MOSUNNY   24  10  54 NW8       30.53F WCI  16
CAHOKIA*       MOSUNNY   24   8  50 NW5       30.55F WCI  18
$$

ILZ064>066-069>071-074>076-080>082-084>086-088>090-092>094-052100-
SOUTH-CENTRAL ILLINOIS

CITY           SKY/WX    TMP DP  RH WIND       PRES   REMARKS
CARBONDALE     SUNNY     22   5  48 N9        30.55S WCI  12
MARION         SUNNY     23   7  50 NW14      30.55S WCI  11
MT. VERNON     SUNNY     21   3  45 N7G16     30.54S WCI  13
$$

ILZ067-068-072-073-078-083-087-091-052100-
SOUTHEAST ILLINOIS

CITY           SKY/WX    TMP DP  RH WIND       PRES   REMARKS
LAWRENCEVILLE  SUNNY     22   4  46 NW10      30.51  WCI  11
$$

ABBREVIATIONS USED IN REMARKS
   TC - TEMPERATURE IN CELSIUS
  WCI - WIND CHILL INDEX
   HX - HEAT INDEX
  VSB - VISIBILITY
$$



USA.gov is the U.S. government's official web portal to all federal, state and local government web resources and services.